Change the Weather History Date:

Sunday, April 27, 2014

  Actual Average Record
Temperature  
Mean Temperature 66 °F -  
Max Temperature 82 °F 87 °F 104 °F (1996)
Min Temperature 50 °F 58 °F 48 °F (1971)
Cooling Degree Days 1    
Growing Degree Days 16 (Base 50)    
Moisture  
Dew Point 35 °F    
Average Humidity 36    
Maximum Humidity 71    
Minimum Humidity 14    
Precipitation  
Precipitation 0.00 in - - ()
Sea Level Pressure  
Sea Level Pressure 29.85 in    
Wind  
Wind Speed 4 mph (SSW)    
Max Wind Speed 10 mph    
Max Gust Speed -    
Visibility 10 miles    
Events      
Averages and records for this station are not official NWS values.
T = Trace of Precipitation, MM = Missing Value Source: NWS Daily Summary

Daily Weather History Graph

Daily Weather History Graph

Search for Another Location

Airport or City:

Trip Planner

Search our weather history database for the weather conditions in past years. The results will help you decide how hot, cold, wet, or windy it might be!

Date:

Astronomy

Apr. 27, 2014 Rise Set
Actual Time 5:54 AM PDT 7:19 PM PDT
Civil Twilight 5:28 AM PDT 7:45 PM PDT
Nautical Twilight 4:56 AM PDT 8:16 PM PDT
Astronomical Twilight 4:23 AM PDT 8:49 PM PDT
Moon 4:51 AM PDT (4/27) 6:01 PM PDT (4/27)
Length of Visible Light 14h 17m
Length of Day
13h 24m
Waning Crescent, 3% of the Moon is Illuminated
Apr 27
Waning Crescent
Apr 28
New
May 6
First Quarter
May 14
Full
May 21
Last Quarter

Hourly Weather History & Observations

Time (PDT) Temp. Dew Point Humidity Pressure Visibility Wind Dir Wind Speed Gust Speed Precip Events Conditions
12:52 AM 57.9 °F 44.1 °F 60% 29.85 in 10.0 mi South 3.5 mph - N/A   Clear
2:52 AM 55.0 °F 42.1 °F 62% 29.83 in 10.0 mi Variable 3.5 mph - N/A   Clear
3:52 AM 53.1 °F 42.1 °F 66% 29.84 in 10.0 mi Calm Calm - N/A   Clear
4:52 AM 52.0 °F 39.9 °F 63% 29.84 in 10.0 mi Calm Calm - N/A   Clear
5:52 AM 50.0 °F 41.0 °F 71% 29.85 in 10.0 mi Calm Calm - N/A   Clear
6:52 AM 53.1 °F 39.9 °F 61% 29.87 in 10.0 mi NW 4.6 mph - N/A   Clear
7:52 AM 57.0 °F 42.1 °F 57% 29.89 in 10.0 mi SSE 3.5 mph - N/A   Clear
8:52 AM 63.0 °F 33.1 °F 33% 29.91 in 10.0 mi Variable 3.5 mph - N/A   Clear
9:52 AM 66.9 °F 30.9 °F 26% 29.91 in 10.0 mi Variable 4.6 mph - N/A   Clear
10:52 AM 71.1 °F 30.0 °F 22% 29.91 in 10.0 mi SE 4.6 mph - N/A   Clear
11:52 AM 73.0 °F 28.0 °F 19% 29.91 in 10.0 mi Variable 3.5 mph - N/A   Clear
12:52 PM 75.0 °F 27.0 °F 17% 29.87 in 10.0 mi Calm Calm - N/A   Clear
1:52 PM 79.0 °F 28.9 °F 16% 29.86 in 10.0 mi South 6.9 mph - N/A   Clear
2:52 PM 80.1 °F 28.0 °F 15% 29.83 in 10.0 mi Variable 5.8 mph - N/A   Clear
3:52 PM 82.0 °F 28.0 °F 14% 29.81 in 10.0 mi NW 8.1 mph - N/A   Clear
4:52 PM 82.0 °F 32.0 °F 16% 29.79 in 10.0 mi Variable 4.6 mph - N/A   Clear
5:52 PM 82.0 °F 28.0 °F 14% 29.78 in 10.0 mi WSW 10.4 mph - N/A   Clear
7:52 PM 75.9 °F 37.0 °F 24% 29.79 in 10.0 mi South 4.6 mph - N/A   Clear
8:52 PM 73.9 °F 35.1 °F 24% 29.80 in 10.0 mi South 9.2 mph - N/A   Clear